Regional Weather Roundup
Issued by NWS

Home | Current Version | Previous Version | Text Only | Print | Product List | Glossary Off
Versions: 1 2 3 4 5 6 7 8 9 10 11 12 13 14 15 16 17 18 19 20 21 22 23 24 25 26 27 28 29 30 31 32 33 34 35 36 37 38 39 40 41 42 43 44 45 46 47 48 49 50

000
ASUS44 KMEG 151410
RWRTN
TENNESSEE HOURLY STATE WEATHER ROUNDUP
NATIONAL WEATHER SERVICE MEMPHIS TN
900 AM CDT MON SEP 15 2014

TNZ002-004-019-021-049-052-054-088>092-151500-
WEST TENNESSEE

CITY           SKY/WX    TMP DP  RH WIND       PRES   REMARKS
MEMPHIS INTL   CLOUDY    71  59  65 CALM      30.18S
NWS MEMPHIS      N/A     68 N/A N/A MISG        N/A
JACKSON        CLOUDY    65  59  81 CALM      30.19R
DYERSBURG      CLOUDY    63  50  63 CALM      30.21R
UNION CITY     SUNNY     59  57  94 CALM      30.19R
PARIS          SUNNY     61  55  82 CALM      30.19S
HUNTINGDON     CLOUDY    61  56  83 CALM      30.19R
LEXINGTON      SUNNY     63  57  82 CALM      30.17R
SAVANNAH       SUNNY     64  63  94 CALM      30.17F
$$

TNZ008-025-027-028-033-062-065-066-151500-
NORTH MIDDLE TENNESSEE

CITY           SKY/WX    TMP DP  RH WIND       PRES   REMARKS
NASHVILLE      CLOUDY    63  60  90 CALM      30.19F
DICKSON        CLOUDY    61  57  88 CALM      30.18S
PORTLAND       SUNNY     61  55  82 CALM      30.18F
CLARKSVILLE    PTSUNNY   61  56  83 CALM      30.19S HAZE
LEBANON        CLOUDY    60  57  89 CALM      30.18S
SMYRNA         CLOUDY    61  60  96 CALM      30.20S
MURFREESBORO   CLOUDY    62  59  90 CALM      30.19S
COOKEVILLE     CLOUDY    64  63  94 CALM      30.21R
LIVINGSTON     CLOUDY    65  62  90 CALM      30.21
GALLATIN       CLOUDY    60  59  97 CALM      30.20S
CROSSVILLE     CLOUDY    68  65  90 CALM      30.24S FOG
$$

TNZ061-075-076-078-094-096-097-151500-
SOUTH MIDDLE TENNESSEE

CITY           SKY/WX    TMP DP  RH WIND       PRES   REMARKS
LEWISBURG      CLOUDY    63  61  93 CALM      30.19S
FAYETTEVILLE     N/A     66  64  94 SE6       30.20S
TULLAHOMA      SUNNY     66  63  88 CALM      30.21S
WINCHESTER     SUNNY     70  66  88 SE7       30.20S
MCMINNVILLE    CLOUDY    64  64 100 CALM      30.20S
COLUMBIA       SUNNY     64  64 100 CALM      30.17S
SHELBYVILLE    SUNNY     66  64  94 CALM      30.20S
$$

TNZ017-018-042-046-047-151500-
NORTHEAST TENNESSEE

CITY           SKY/WX    TMP DP  RH WIND       PRES   REMARKS
TRI CITIES     CLOUDY    67  61  81 CALM      30.24S
ELIZABETHTON   PTSUNNY   68  61  77 CALM      30.24S
$$

TNZ012-013-036-069-073-074-151500-
CENTRAL EAST TENNESSEE

CITY           SKY/WX    TMP DP  RH WIND       PRES   REMARKS
KNOXVILLE      CLOUDY    69  66  90 S7        30.21S FOG
OAK RIDGE      CLOUDY    69  65  86 VRB5      30.23S
GATLINBURG     CLOUDY    70  64  83 CALM      30.21S
MORRISTOWN     CLOUDY    66  66 100 CALM      30.24R
$$

TNZ083-085-099-151500-
SOUTHEAST TENNESSEE

CITY           SKY/WX    TMP DP  RH WIND       PRES   REMARKS
CHATTANOOGA    CLOUDY    69  65  86 CALM      30.22R FOG
$$

SKY/WX REPORTED AS FAIR MEANS FEW OR NO CLOUDS BELOW
12 THOUSAND FEET.




USA.gov is the U.S. government's official web portal to all federal, state and local government web resources and services.